Overview Statistics Trail Chart Weather Telemetry Raw packets
 

This is the latest recevied weather packets stored in our database for station/object K4QXN-13. If no packets are shown the sender has not sent any weather packets the latest 10 day(s).

<< 1 2 3 4 5 6 >>
Time Temp. Humidity Pressure Rain* Wind** Luminosity Snow
1788563060 33.89° C 57% 1013.8 hPa 0 mm - - -
1788562758 33.89° C 56% 1013.8 hPa 0 mm - - -
1788562457 33.89° C 56% 1013.8 hPa 0 mm - - -
1788562155 33.89° C 55% 1013.8 hPa 0 mm - - -
1788561853 33.89° C 54% 1013.8 hPa 0 mm - - -
1788561551 34.44° C 55% 1013.5 hPa 0 mm - - -
1788561250 34.44° C 54% 1013.5 hPa 0 mm - - -
1788560948 35° C 53% 1013.8 hPa 0 mm - - -
1788560646 36.11° C 50% 1014.2 hPa 0 mm - - -
1788560345 36.11° C 50% 1014.2 hPa 0 mm - - -
1788560043 36.67° C 48% 1014.2 hPa 0 mm - - -
1788559741 36.67° C 47% 1014.2 hPa 0 mm - - -
1788559440 36.67° C 46% 1014.2 hPa 0 mm - - -
1788559138 36.67° C 45% 1014.2 hPa 0 mm - - -
1788558837 36.67° C 47% 1014.2 hPa 0 mm - - -
1788558535 36.67° C 47% 1014.2 hPa 0 mm - - -
1788558234 36.67° C 46% 1013.8 hPa 0 mm - - -
1788557932 36.67° C 46% 1014.2 hPa 0 mm - - -
1788557630 36.67° C 46% 1014.2 hPa 0 mm - - -
1788557328 37.22° C 47% 1014.2 hPa 0 mm - - -
1788557027 37.78° C 45% 1014.2 hPa 0 mm - - -
1788556725 37.22° C 46% 1014.5 hPa 0 mm - - -
1788556424 36.67° C 48% 1014.5 hPa 0 mm - - -
1788556122 37.78° C 45% 1014.2 hPa 0 mm - - -
1788555820 38.33° C 43% 1014.5 hPa 0 mm - - -

* Rain latest hour (hover to see other rain measurements)
** Current wind speed in m/s (hover to see current wind gust speed)